Regional Weather Roundup
Issued by NWS Pendleton, OR

Home | Current Version | Previous Version | Text Only | Print | Product List | Glossary On
Versions: 1 2 3 4 5 6 7 8 9 10 11 12 13 14 15 16 17 18 19 20 21 22 23 24 25 26 27 28 29 30 31 32 33 34 35 36 37 38 39 40 41 42 43 44 45 46 47 48 49 50
000
ASUS46 KPDT 011610
RWRPDT
PENDLETON REGIONAL WEATHER ROUNDUP
NATIONAL WEATHER SERVICE PENDLETON OREGON
900 AM PDT WED OCT 1 2014

NOTE: FAIR INDICATES FEW OR NO CLOUDS BELOW 12,000 FEET WITH NO
SIGNIFICANT WEATHER AND/OR OBSTRUCTIONS TO VISIBILITY.

# INDICATES UNOFFICIAL STATION AND DATA

WAZ520-011710-
EAST SLOPES OF WASHINGTON CASCADES

CITY            SKY/WX      TMP DP  RH  WIND    PRES   REMARKS
#BUMPING DAM    N/A         42  N/A N/A S1      N/A
#CLE ELUM HS    N/A         46  42  86  W2      30.10F
#CLE ELUM 2NW   N/A         51  42  71  W2      N/A
#CLE ELUM LAKE  N/A         47  41  79  CALM    30.11S
#CLIFFDEL 2NW   N/A         42  39  89  N1      N/A
#EASTON DOT     N/A         46  41  83  N1      N/A
#GLENWOOD       N/A         34  33  96  CALM    30.19S
#MANASTASH CYN  N/A         46  37  71  W1      30.09F
#NELSON         N/A         47  45  93  CALM    30.16S
#NELSON 3SW     N/A         46  41  83  CALM    30.34R
#NILE           N/A         39  38  96  CALM    29.42F
#PEOH POINT     N/A         42  39  89  S3      N/A
#RONALD 2NW     N/A         47  41  79  CALM    30.02R
#SNOWDEN        N/A         47  42  83  NW3     N/A
#TEANAWAY 4NE   N/A         38  37  96  CALM    N/A
#TROUT LAKE 1NE N/A         46  43  89  CALM    30.18S
$$

WAZ521-011710-
SIMCOE HIGHLANDS

CITY            SKY/WX      TMP DP  RH  WIND    PRES   REMARKS
#BICKLETON HS   N/A         50  32  50  CALM    30.24S
#SATUS PASS DOT N/A         41  34  76  CALM    N/A
#CENTERVILLE 4W N/A         51  46  83  W13     29.91S
#CENTERVILLE 1SWN/A         43  40  89  E1      30.16F
#GOLDENDALE     N/A         39  37  92  E2      N/A
#GOLDENDALE 1NE N/A         42  41  96  CALM    N/A
#GOLDENDALE 1S  N/A         44  42  93  CALM    30.14S
#GOLDENDALE 5WNWN/A         46  43  89  W1      30.16R
#GOODNOE HILLS  N/A         53  48  83  W12     30.11S
#LYLE 6NE       N/A         50  45  83  SW6     30.14S
$$

WAZ026-011710-
KITTITAS VALLEY

CITY            SKY/WX      TMP DP  RH  WIND    PRES   REMARKS
ELLENSBURG AP   SUNNY       54  40  59  MISG    30.14S
#ELLENSBURG CWU N/A         48  39  71  NE1     30.09S
#ELLENSBURG 3NE N/A         48  40  74  CALM    30.13S
#ELLENSBURG     N/A         53  44  71  E1      N/A
#KITTITAS 3S    N/A         44  41  89  CALM    30.13R
#THORP 6N       N/A         46  40  79  NW10    30.14S
$$

WAZ027-011710-
YAKIMA VALLEY

CITY            SKY/WX      TMP DP  RH  WIND    PRES   REMARKS
SUNNYSIDE AP    SUNNY       48  43  83  CALM    30.16S
YAKIMA AIRPORT  SUNNY       50  40  68  CALM    30.16S
YAKIMA-VAGABOND SUNNY       54  41  61  NW2     30.16S
#COWICHE 1N     N/A         53  40  61  NW5     30.28S
#DONALD 2NE     N/A         66  41  40  CALM    30.47S
#GRANDVIEW      N/A         52  43  71  CALM    30.17R
#MABTON         N/A         52  45  77  CALM    30.16S
#MOXEE 2E       N/A         55  33  43  SE3     30.08F
#NACHES 2SW     N/A         53  42  66  W7      30.15R
#TERRACE HTS    N/A         47  40  76  CALM    30.10S
#TOPPENISH      N/A         50  43  77  CALM    30.07R
#WAPATO 4NE     N/A         66  41  40  CALM    30.47S
#WEST VALLEY    N/A         51  41  68  CALM    30.12S
#WHITE SWAN 5E  N/A         47  42  83  CALM    30.16S
#WILEY CITY 3W  N/A         54  47  77  CALM    30.16R
$$

WAZ028-011710-
LOWER COLUMBIA BASIN...WASHINGTON

CITY            SKY/WX      TMP DP  RH  WIND    PRES   REMARKS
PASCO           PTCLDY      56  46  69  S6      30.16S
PROSSER AWOS    N/A         52  45  77  SE3     30.19S
RICHLAND AWOS   PTCLDY      55  43  64  SW5     30.16R
#BASIN CITY 5SW N/A         53  45  74  CALM    30.15R
#BENTON CITY    N/A         48  41  77  N3      30.06S
#CONNELL 5N     N/A         46  38  73  CALM    30.14R
#CONNELL 5NW    N/A         47  41  79  CALM    30.10R
#ELTOPIA        N/A         46  44  93  CALM    30.11S
#ELTOPIA 6NW    N/A         48  44  86  S2      29.11S
#KENNEWICK 3S   N/A         53  46  77  S8      30.14S
#PASCO-BROADMOORN/A         61  49  65  CALM    30.04F
#PATERSON       N/A         52  47  83  CALM    30.15S
#PROSSER DOT    N/A         46  42  86  CALM    N/A
#PROSSER        N/A         50  39  66  CALM    30.15R
#SAGEMOOR 2W    N/A         52  47  83  CALM    30.00R
#TOUCHET 2S     N/A         57  45  64  SW13    30.13S
#WEST PASCO     N/A         53  46  77  CALM    30.19S
$$

WAZ029-011710-
FOOTHILLS OF THE BLUES...WASHINGTON

CITY            SKY/WX      TMP DP  RH  WIND    PRES   REMARKS
WALLA WALLA AP  PTCLDY      56  42  59  S12     30.19R
#DAYTON SCHOOL  N/A         53  39  59  S6      30.15S
#LOWDEN 2SE     N/A         57  46  67  SW3     30.14S
#PLEASANT VIEW 1N/A         51  45  80  S13     30.17S
#PRESCOTT       N/A         55  46  72  S2      30.16S
#SUDBURY        N/A         59  N/A N/A CALM    N/A
#WHITMAN COLLEGEN/A         55  44  66  S2      30.21S
#WAITSBURG 8N   N/A         52  34  50  S10     30.12S
#WALLA WALLA 5E N/A         55  43  64  W7      N/A
#WALLA WALLA U  N/A         57  46  67  CALM    30.16S
#WHITMAN MISSIONN/A         54  49  83  CALM    30.18R
$$

WAZ030-011710-
BLUE MOUNTAINS...WASHINGTON

CITY            SKY/WX      TMP DP  RH  WIND    PRES   REMARKS
$$

ORZ009-041-WAZ024-011710-
COLUMBIA RIVER GORGE

CITY            SKY/WX      TMP DP  RH  WIND    PRES   REMARKS
HOOD RIVER AP   SUNNY       55  45  69  SE3     30.20S
THE DALLES AP   SUNNY       58  46  64  NW9     30.19S
#ARLINGTON AIRPON/A         53  47  80  W7      29.98S
#ARLINGTON HS   N/A         56  47  72  NW2     30.09S
#LYLE           N/A         57  49  75  N2      30.19S
#MARYHILL       N/A         54  47  77  E3      N/A
#MARYHILL 2W    N/A         56  48  74  MISG    N/A
#MOSIER 1S      N/A         55  36  49  CALM    N/A
#MURDOCK        N/A         57  50  77  W7      30.20S
#RUFUS DOT      N/A         56  44  64  SW3     N/A

$$

ORZ510-011710-
NORTH CENTRAL OREGON

CITY            SKY/WX      TMP DP  RH  WIND    PRES   REMARKS
#CHENOWITH 1W   N/A         49  43  80  NW15    N/A    WCI 43
#COW CYN RST AREN/A         45  38  76  SW7     N/A
#DUFUR 9E       N/A         49  40  71  W7      30.22S
#GRASS VALLEY   N/A         50  41  71  S3      N/A
#GRASS VALLEY 1SN/A         44  40  86  SW2     30.22F
#KENT DOT       N/A         47  37  68  S3      N/A
#MAUPIN SCHOOL  N/A         44  38  79  N1      29.10S
#MORO SCHOOL    N/A         52  45  77  W7      30.19S
#SHANIKO 5WSW   N/A         43  37  79  S8      N/A
#SHANIKO 4NW    N/A         44  37  76  SW2     30.19S
#TYGH VALLEY 2NEN/A         43  39  86  CALM    30.20S
#WAPANITIA AIRPON/A         47  41  79  CALM    30.20S
#WASCO 5NE      N/A         51  43  74  SW6     30.16S
$$

ORZ511-011710-
CENTRAL OREGON

CITY            SKY/WX      TMP DP  RH  WIND    PRES   REMARKS
BEND AIRPORT    SUNNY       43  36  76  SW8     30.24R
MADRAS AIRPORT  PTCLDY      45  39  79  S7      30.24R
REDMOND AIRPORT SUNNY       45  35  68  SE5     30.22R
#BEND 6E        N/A         44  35  70  CALM    30.19F
#BEND 1SW       N/A         38  36  92  SW1     N/A
#BEND-KIM LN    N/A         40  37  89  SW6     30.19R
#CROOKED RVR RANN/A         44  38  79  CALM    30.20S
#CULVER         N/A         46  39  76  CALM    30.19R
#CULVER 1E      N/A         44  39  82  CALM    30.23S
#LAKE BILLY CHINN/A         45  23  41  CALM    30.26S
#POWELL BUTTE 3EN/A         37  35  92  E1      N/A
#POWELL BUTTE   N/A         47  41  79  N1      29.84R
#PRINEVILLE 3N  N/A         43  38  82  CALM    30.18R
#WARM SPRINGS   N/A         42  37  82  CALM    30.19S


ORZ509-011710-
EAST SLOPES OF OREGON CASCADES

CITY            SKY/WX      TMP DP  RH  WIND    PRES   REMARKS
#BLUE BOX PASS  N/A         41  -8  12  CALM    N/A
#CAMP SHERMAN   N/A         29  27  92  CALM    30.31S
#LA PINE DOT    N/A         31  30  96  SW1     N/A
#LA PINE 4NW    N/A         28  25  88  CALM    30.29S
#LAVA BUTTE DOT N/A         36  36  100 CALM    N/A
#SISTERS AIRPOR N/A         40  37  89  CALM    29.91S
#SISTERS ODOT   N/A         42  N/A N/A CALM    N/A
#SISTERS 3N     N/A         36  32  85  CALM    N/A
#SUNRIVER       N/A         36  34  92  SW1     30.13R
#SUNRIVER AP    N/A         33  32  96  CALM    30.20S
#SUTTLE LK DOT  N/A         36  36  100 W12     N/A    WCI 28
#TUMALO 3W      N/A         47  36  65  CALM    30.08S
#WANOGA BUTTE D N/A         37  32  82  W6      N/A

$$

ORZ044-011710-
LOWER COLUMBIA BASIN...OREGON

CITY            SKY/WX      TMP DP  RH  WIND    PRES   REMARKS
HERMISTON       SUNNY       58  42  55  W10     30.18R
#BOARDMAN SCHOOLN/A         57  44  62  W2      30.16S
#BOARDMAN 3W    N/A         57  47  69  SW8     29.91S
#BOARDMAN 8SW   N/A         55  46  72  SW9     30.17R
#ECHO 8SW       N/A         58  41  53  W5      30.14S
#IONE SCHOOL    N/A         55  40  57  S8      30.17S
#IRRIGON 4NW    N/A         54  48  80  S1      N/A
#UMATILLA SCHOOLN/A         51  47  86  CALM    30.18F
#UMATILLA       N/A         53  43  69  CALM    30.16R
$$

ORZ507-011710-
NORTHERN FOOTHILLS OF THE BLUES

CITY            SKY/WX      TMP DP  RH  WIND    PRES   REMARKS
PENDLETON AIRPT PTCLDY      52  40  63  SE5     30.18S
#ADAMS 3WNW     N/A         51  44  77  CALM    30.16S
#ATHENA         N/A         53  43  69  SW1     30.19R
#CAYUSE         N/A         50  42  74  E1      30.17R
#HELIX SCHOOL   N/A         48  43  83  S5      30.16S
#HELIX 3N       N/A         50  43  77  S12     30.13S
#HOLDMAN 5SE    N/A         52  42  69  SW7     30.17S
#HOLDMAN 6E     N/A         50  41  71  N7      29.98S
#M-F GROVE ELEM N/A         55  41  59  S2      30.15F
#M-FREEWATER 5SEN/A         54  43  66  CALM    30.17S
#PENDLETON DNTN N/A         48  38  68  CALM    29.00S
#PDT AQUATIC CTRN/A         53  40  61  CALM    30.17
#PENDLETON 5NE  N/A         48  44  86  CALM    30.14S
#PDT SUNRIDGE   N/A         54  44  69  S2      30.19S
#PENDLETON 7NW  N/A         53  43  69  W5      27.05R
#PILOT ROCK     N/A         51  39  63  S1      30.19S
#TUTUILLA       N/A         51  43  74  S1      30.19R
#UMAPINE 2E     N/A         57  46  67  SW3     30.15S

$$

ORZ508-011710-
SOUTHERN FOOTHILLS OF THE BLUES

CITY            SKY/WX      TMP DP  RH  WIND    PRES   REMARKS
LEXINGTON       SUNNY       55  39  55  SW9     30.21S
#AJAX           N/A         49  34  56  SW5     30.11S
#CONDON SCHOOL  N/A         45  41  86  CALM    30.14S
#CONDON 5W      N/A         45  38  76  SW7     30.16S
#FOSSIL SCHOOL  N/A         43  39  86  CALM    30.16S
#HEPPNER EOC    N/A         53  40  61  S3      30.14S
#HEPPNER 4NE    N/A         50  39  66  W6      30.17S
#LEXINGTON 2SE  N/A         57  42  57  SW7     30.17S
#MIKKALO        N/A         54  39  57  W9      30.17R
#RUGGS 5NE      N/A         51  38  61  SW3     30.33S
#RUGGS 2SW      N/A         49  39  68  S3      30.19S

$$

ORZ502-503-011710-
BLUE MOUNTAINS

CITY            SKY/WX      TMP DP  RH  WIND    PRES   REMARKS
MEACHAM         CLOUDY      45  41  86  MISG    30.18S
#BATTLE MTN DOT N/A         39  39  100 S5      N/A
#HARDMAN 10S    N/A         42  37  82  CALM    30.21S
#HEPPNER 15SE   N/A         43  38  82  NW3     30.09S
#LADD CYN SMT   N/A         50  32  50  N6      N/A
#LADD CREEK ODOTN/A         38  37  96  SE3     N/A
#LONG CREEK HS  N/A         46  43  89  CALM    30.16S
#N POWDER DOT   N/A         43  40  89  S5      N/A
#PIKES PEAK     N/A         43  39  86  S18G26  27.99S WCI 35
#TROY SCHOOL    N/A         46  39  76  W1      30.03S
#UKIAH          N/A         38  36  92  CALM    30.24S
#WESTON 4E      N/A         45  40  82  S5      30.11S
$$

ORZ505-011710-
JOHN DAY BASIN

CITY            SKY/WX      TMP DP  RH  WIND    PRES   REMARKS
JOHN DAY        PTCLDY      49  40  71  CALM    30.21S
#JOHN DAY KJDY  N/A         49  43  80  NE1     30.31F
#DAYVILLE SCHOOLN/A         50  38  63  CALM    30.17S
#MONUMENT HS    N/A         48  40  74  CALM    30.20S
#MT. VERNON 5SE N/A         47  40  76  CALM    30.16S
#WINLOCK        N/A         51  41  68  NW2     30.27R
$$

ORZ506-011710-
OCHOCO AND JOHN DAY HIGHLANDS

CITY            SKY/WX      TMP DP  RH  WIND    PRES   REMARKS
#BUCK CREEK DOT N/A         50  48  93  CALM    N/A
#HORSE RIDGE DO N/A         39  32  76  SW1     N/A
#KEYES SMT DOT  N/A         46  37  71  W3      N/A
#PAULINA SCHOOL N/A         37  33  85  CALM    30.20R
#PINE MTN OBS   N/A         37  34  89  S3      N/A
#PRAIRIE CITY   N/A         45  43  93  CALM    30.27F
#SENECA         N/A         43  N/A N/A W1      N/A
#SENECA 9NW     N/A         43  37  79  CALM    30.16S
$$

ORZ049-011710-
GRANDE RONDE VALLEY

CITY            SKY/WX      TMP DP  RH  WIND    PRES   REMARKS
LA GRANDE       SUNNY       46  34  63  CALM    30.19R
#COVE           N/A         48  43  83  CALM    30.10R
#COVE SCHOOL    N/A         49  41  74  CALM    30.16S
#COVE 6NW       N/A         41  39  93  CALM    30.23S
#ELGIN 3N       N/A         44  43  96  CALM    29.91R
#ELGIN 1E       N/A         38  34  85  CALM    N/A
#IMBLER SCHOOL  N/A         44  39  82  CALM    30.15R
#LADD CYN DOT   N/A         44  38  79  SE3     N/A
#UNION 1S       N/A         50  44  80  CALM    30.10R
$$

ORZ050-011710-
WALLOWA COUNTY

CITY            SKY/WX      TMP DP  RH  WIND    PRES   REMARKS
#ENTERPRISE AP  N/A         39  35  85  E3      30.11S
#ENTERPRISE HS  N/A         41  39  93  CALM    30.19S
#IMNAHA SCHOOL  N/A         52  39  61  CALM    30.12F
#IMNAHA 10S     N/A         47  40  76  S3      30.16S
#JOSEPH 3N      N/A         34  33  96  CALM    30.18R
#JOSEPH 3W      N/A         48  38  68  CALM    30.01R
#LOSTINE        N/A         41  38  89  E2      30.00R
#MT HOWARD 8000 N/A         30  28  92  NW1     30.17R
#PROMISE 1S     N/A         46  37  71  CALM    30.27S
#SHEEP RDG 7000 N/A         32  28  85  CALM    30.23R
#WALLOWA SCHOOL N/A         38  36  92  CALM    31.14S



$$



USA.gov is the U.S. government's official web portal to all federal, state and local government web resources and services.